Location: Rowland
(34.5359°N, 79.2929°W)
Time: 16:15:40
(UTC+00:00)

S-56A Canister/Altair - Pass Details

Date: 08 October 2022
Orbit: 638 x 2494 km, 38.9° (Epoch: 06 December)

Event Time Altitude Azimuth Distance (km) Brightness Sun altitude
Exits shadow 08:50:09 57° 302° (WNW) 1,666 8.8 -30.8°
Maximum altitude 08:52:17 78° 14° (NNE) 1,360 8.6 -30.4°
Drops below altitude 10° 08:59:08 10° 101° (ESE) 2,787 11.2 -29.1°
Sets 09:01:19 0° 103° (ESE) 3,555 11.9 -28.6°
